Regional Weather Roundup
Issued by NWS

Home | Current Version | Previous Version | Text Only | Print | Product List | Glossary Off
Versions: 1 2 3 4 5 6 7 8 9 10 11 12 13 14 15 16 17 18 19 20 21 22 23 24 25 26 27 28 29 30 31 32 33 34 35 36 37 38 39 40 41 42 43 44 45 46 47 48 49 50

079
ASUS45 KBOI 221810
RWRID

IDAHO REGIONAL WEATHER ROUNDUP
NATIONAL WEATHER SERVICE BOISE ID
1200 PM MDT FRI SEP 22 2017

NOTE: "FAIR" INDICATES FEW OR NO CLOUDS BELOW 12000 FEET
WITH NO SIGNIFICANT WEATHER AND/OR OBSTRUCTIONS TO VISIBILITY

IDZ012-014-221900-
SOUTHWEST IDAHO


CITY           SKY/WX    TMP DP  RH WIND       PRES   REMARKS
BOISE          CLOUDY    45  41  86 W10       29.95R
CALDWELL       LGT RAIN  47  42  83 SW10      29.96R
MOUNTAIN HOME  PTSUNNY   48  37  66 N17       29.94S
$$

IDZ016-017-221900-
SOUTHCENTRAL IDAHO


CITY           SKY/WX    TMP DP  RH WIND       PRES   REMARKS
BURLEY         CLOUDY    45  37  73 W12G17    29.93S
JEROME         CLOUDY    44  39  82 SW12      29.94S
TWIN FALLS     PTSUNNY   47  36  65 W12       29.94R
$$

IDZ019>023-221900-
SOUTHEAST IDAHO


CITY           SKY/WX    TMP DP  RH WIND       PRES   REMARKS
IDAHO FALLS    LGT RAIN  42  38  85 SW15      29.93R
POCATELLO      LGT RAIN  42  39  89 SW12      29.94
REXBURG        CLOUDY    41  38  89 SW8       29.91S
$$

IDZ006-010-011-018-031-032-221900-
CENTRAL IDAHO MOUNTAINS


CITY           SKY/WX    TMP DP  RH WIND       PRES   REMARKS
MCCALL         LGT RAIN  41  36  82 W5        29.88S
HAILEY         PTSUNNY   43  36  75 SE8       29.90R
STANLEY          N/A     39  33  79 CALM      29.88R
SALMON         CLOUDY    44  34  67 VRB3      29.92R
CHALLIS        CLOUDY    42  36  79 CALM      29.88R
$$

IDZ002-004-006-007-026-221900-
NORTHERN IDAHO


CITY           SKY/WX    TMP DP  RH WIND       PRES   REMARKS
LEWISTON       MOSUNNY   48  43  82 CALM      30.00S
LOWELL           N/A     49  40  71 S8        29.99F
COEUR D`ALENE  SUNNY     53  40  61 N12       30.01F
MULLAN PASS    LGT SNOW  33  31  92 CALM      29.98R FOG
$$




USA.gov is the U.S. government's official web portal to all federal, state and local government web resources and services.